Airfield :
LOGIN :

Register | Disclaimer

   EN    FR    IT 

 










Legend :    VFR   Marginal VFR   IFR   Intensive IFR   Very Intensive IFR
Visi :
Ceiling :
>= 8 km
>= 3000ft
5 to 8 km
1000 to 3000 ft
1500m to 5 km
500 to 1000 ft
800 to 1500m
200 to 500 ft
< 800m
< 200 ft
Symbols :   Thunderstorms  Fog  Heavy snow  Heavy precipitations  Wind > 20 kt
SIGMETs :     Misc.  Thunderstorms  Icing  Turbulence  Mountain Waves  Volcanic Ashes







- Airport Elevation : 299 ft
- IATA code : EDM
- Download approach charts


LFRI - La Roche Sur Yon - Les Ajoncs

CURRENT METAR :
  • 180800Z AUTO 07011KT CAVOK 05/03 Q1017 NOSIG

EXPIRED METARs :
  • 180730Z AUTO 06012KT CAVOK 04/03 Q1016 NOSIG
  • 180700Z AUTO 06010KT 8000 NSC 04/02 Q1016 NOSIG
  • 180630Z AUTO 06010KT 9000 NSC 04/02 Q1016 NOSIG
  • 180600Z AUTO 06010KT CAVOK 04/02 Q1016 NOSIG
  • 180530Z AUTO 07010KT CAVOK 04/03 Q1016 NOSIG

TAF TAF LFRI
Valid from the 18 at 06:00 until the 19 at 06:00 UTC


180500Z 1806/1906 07010KT CAVOK
No reported NOTAMs for that airfield.



MET'MAP, your aeronautical weather chart ! - Copyright ORBIFLY December 2007 - Disclaimer

ORBIFLY MET'MAP TEAM :

Programming & Development : Alexandra Zaïnal
Concept & Development : Baudouin d'Aumeries
Co-Development & Prog : Marc-Olivier Méhu
Technical & hardware support : Manuel Goepfert

Contact : metmap@orbifly.com




SOURCES & CREDITS :

   NOAA